Location: B?dargowo
(53.3916°N, 14.4413°E)
Time: 09:47:21
(UTC+00:00)

CZ-4B R/B - Pass Details

Date: 05 February 2023
Orbit: 809 x 881 km, 99.0° (Epoch: 19 March)

Event Time Altitude Azimuth Distance (km) Brightness Sun altitude
Rises 17:22:46 0° 152° (SSE) 3,347 6.1 -13.6°
Reaches altitude 10° 17:25:06 10° 149° (SSE) 2,427 5.4 -14.0°
Maximum altitude 17:30:25 67° 69° (ENE) 911 3.1 -14.8°
Drops below altitude 10° 17:35:54 10° 348° (NNW) 2,490 5.7 -15.6°
Sets 17:38:18 0° 346° (NNW) 3,441 6.5 -15.9°
